DW0231 Weather Reports


Display with metric or nautical units.
time (UTC)temp
F
wind
direction
speed
MPH
gust
MPH
rain 1hr
in
rain 24hr
in
rain mn
in
humidity
%
barometer
mb
20260506044607 49 190 0.0 0.0 0.00 0.00 0.01 68 1006.1
20260506043053 49 190 0.0 0.0 0.00 0.00 0.01 67 1006.4
20260506041527 49 190 0.0 0.0 0.00 0.00 0.01 67 1006.4
20260506040005 50 190 0.0 0.0 0.00 0.00 0.01 66 1006.1
20260506034601 50 190 0.0 0.0 0.00 0.00 0.01 65 1006.1
20260506033044 51 190 0.0 0.0 0.00 0.00 0.01 64 1005.7
20260506031541 51 190 0.0 0.0 0.00 0.00 0.01 62 1005.7
20260506030024 53 190 0.0 0.0 0.00 0.00 0.01 58 1005.4
20260506024523 54 190 0.0 0.0 0.00 0.00 0.01 56 1005.2
20260506023102 56 190 0.0 0.0 0.00 0.00 0.01 54 1005.2
20260506021557 57 190 2.0 0.0 0.00 0.00 0.01 51 1004.9
20260506020037 59 190 1.0 0.0 0.00 0.00 0.01 51 1004.7
20260506014524 59 190 1.0 0.0 0.00 0.00 0.01 48 1004.7
20260506013101 60 190 1.0 0.0 0.00 0.00 0.01 47 1004.6
20260506011552 60 191 1.0 0.0 0.00 0.00 0.01 47 1004.6
20260506010015 60 190 0.0 0.0 0.00 0.00 0.01 44 1004.7
20260506004503 60 185 0.0 0.0 0.00 0.00 0.01 43 1004.6
20260506003041 60 185 1.0 0.0 0.00 0.00 0.01 45 1004.7
20260506001541 60 184 2.0 0.0 0.00 0.00 0.01 43 1004.6
20260506000041 59 176 2.0 0.0 0.00 0.00 0.01 46 1004.6
20260505234524 59 148 0.0 0.0 0.00 0.00 0.01 47 1004.6
20260505233012 59 148 1.0 0.0 0.00 0.00 0.01 47 1004.9
20260505231559 58 148 1.0 0.0 0.00 0.00 0.01 51 1004.9
20260505230027 57 148 1.0 0.0 0.00 0.00 0.01 52 1005.2
20260505224526 57 148 1.0 0.0 0.00 0.00 0.01 51 1005.2
20260505223108 56 91 0.0 0.0 0.00 0.00 0.01 53 1005.7
20260505221546 56 91 1.0 0.0 0.00 0.00 0.01 52 1005.8
20260505220025 55 87 2.0 0.0 0.00 0.00 0.01 58 1005.9
20260505214511 54 80 1.0 0.0 0.00 0.00 0.01 62 1006.1
20260505213007 54 26 1.0 0.0 0.00 0.00 0.01 63 1006.1
20260505211627 54 26 1.0 0.0 0.00 0.00 0.01 61 1006.1
20260505210038 56 19 0.0 0.0 0.00 0.00 0.01 61 1006.1
20260505204525 55 19 0.0 0.0 0.00 0.00 0.01 54 1006.0
20260505203003 56 19 2.0 0.0 0.00 0.00 0.01 53 1005.9
20260505201548 56 16 1.0 0.0 0.00 0.00 0.01 50 1005.9
20260505200034 56 15 1.0 0.0 0.00 0.00 0.01 50 1005.8
20260505194511 57 40 2.0 0.0 0.00 0.00 0.01 51 1005.7
20260505193003 56 204 2.0 0.0 0.00 0.00 0.01 48 1005.7
20260505191540 55 203 1.0 0.0 0.00 0.00 0.01 50 1005.6
20260505190018 55 203 1.0 0.0 0.00 0.00 0.01 50 1005.6
20260505184523 55 206 1.0 0.0 0.00 0.00 0.01 50 1005.6
20260505183010 55 209 3.0 0.0 0.00 0.00 0.01 49 1005.5
20260505181550 55 187 4.0 0.0 0.00 0.00 0.01 48 1005.5
20260505180027 55 192 4.0 0.0 0.00 0.00 0.01 49 1005.4
20260505174519 54 211 4.0 0.0 0.00 0.00 0.01 51 1005.4
20260505173102 54 214 3.0 0.0 0.00 0.00 0.01 52 1005.3
20260505171545 54 213 3.0 0.0 0.00 0.00 0.01 51 1005.2
20260505170033 54 194 5.0 0.0 0.00 0.00 0.01 51 1005.0
20260505164507 54 204 4.0 0.0 0.00 0.00 0.01 51 1005.0
20260505163042 54 194 4.0 0.0 0.00 0.00 0.01 51 1005.0
20260505161510 54 207 3.0 0.0 0.00 0.00 0.01 52 1004.9
20260505153015 53 51 0.0 0.0 0.00 0.00 0.01 60 1004.2
20260505151509 53 52 0.0 0.0 0.00 0.00 0.01 63 1004.1
20260505150104 53 52 0.0 0.0 0.00 0.00 0.01 62 1004.0
20260505130103 52 58 2.0 0.0 0.00 0.00 0.01 58 1003.1
20260505124523 52 69 4.0 0.0 0.00 0.00 0.01 61 1002.8
20260505123104 52 286 3.0 0.0 0.00 0.00 0.01 66 1002.7
20260505121547 52 224 1.0 0.0 0.00 0.00 0.00 68 1002.7
20260505120027 53 16 0.0 0.0 0.00 0.00 0.00 68 1002.7
20260505114508 53 15 0.0 0.0 0.00 0.00 0.00 67 1002.5
20260505113003 53 16 0.0 0.0 0.00 0.00 0.00 67 1002.5
20260505111502 53 16 0.0 0.0 0.00 0.00 0.00 67 1002.5
20260505110104 53 15 0.0 0.0 0.00 0.00 0.00 66 1002.9
20260505101522 54 16 0.0 0.0 0.00 0.00 0.00 65 1002.5
20260505100002 54 16 0.0 0.0 0.00 0.00 0.00 62 1002.7
20260505094607 54 16 0.0 0.0 0.00 0.00 0.00 61 1002.8
20260505093032 54 16 0.0 0.0 0.00 0.00 0.00 63 1003.0
20260505091516 54 16 0.0 0.0 0.00 0.00 0.00 63 1002.9
20260505090005 54 16 0.0 0.0 0.00 0.00 0.00 62 1002.8
20260505084541 54 16 0.0 0.0 0.00 0.00 0.00 61 1002.8
20260505083015 55 15 0.0 0.0 0.00 0.00 0.00 60 1002.9
20260505081503 55 16 1.0 0.0 0.00 0.00 0.00 59 1002.8
20260505080045 55 76 0.0 0.0 0.00 0.00 0.00 60 1003.0
20260505074515 55 78 1.0 0.0 0.00 0.00 0.00 58 1002.9
20260505073104 55 109 1.0 0.0 0.00 0.00 0.00 59 1002.9
20260505071534 55 121 1.0 0.0 0.00 0.00 0.00 58 1002.9
20260505070015 56 126 2.0 0.0 0.00 0.00 0.17 59 1002.7
20260505064511 56 193 1.0 0.0 0.00 0.00 0.17 60 1002.7
20260505063042 56 126 2.0 0.0 0.00 0.00 0.17 60 1002.6
20260505061524 56 203 3.0 0.0 0.00 0.00 0.17 60 1002.5
20260505060010 56 185 1.0 0.0 0.00 0.00 0.17 59 1002.5